Location: Cointrin
(46.2167°N, 6.1167°E)
Time: 07:42:55
(UTC+00:00)

ISS - Pass Details

Date: 27 January 2026
Orbit: 413 x 429 km, 51.6° (Epoch: 11 February)

Event Time Altitude Azimuth Distance (km) Brightness Sun altitude
Rises 17:46:36 0° 297° (WNW) 2,365 0.9 -12.8°
Reaches altitude 10° 17:48:42 10° 296° (WNW) 1,502 -0.2 -13.2°
Maximum altitude 17:52:04 82° 210° (SSW) 429 -3.7 -13.7°
Enters shadow 17:54:23 19° 123° (ESE) 1,079 -2.1 -14.1°
